OpenBCM V1.08-5-g2f4a (Linux)

Packet Radio Mailbox

IZ3LSV

[San Dona' di P. JN]

 Login: GUEST





  
LU1HVK > KEP      10.01.20 17:54l 241 Lines 12023 Bytes #999 (0) @ WW
BID : 38699_LU1HVK
Read: GUEST
Subj: TLE 31 10
Path: IZ3LSV<IW0QNL<JH4XSY<N3HYM<XE1FH<LU1HVK
Sent: 200110/1525Z 38699@LU1HVK.2594.CBA.ARG.SA LinBPQ6.0.19

                         _    _   _ _ _   ___     ___  __
                        | |  | | | / | | | \ \   / / |/ /
                        | |  | | | | | |_| |\ \ / /| ' /
                        | |__| |_| | |  _  | \ V / | . \
                        |_____\___/|_|_| |_|  \_/  |_|\_\

     BBS/NODO - CORDOBA (LEONES-FF87UH) - LU1HVK-4 NODO - LU1HVK-3 APRS

+----------------------------------------------------------------------------+
OSCAR 7
1  7530U 74089B   19303.13454031 -.00000044  00000-0  36686-5 0  9993
2  7530 101.7637 269.5111 0012488  89.0237 333.8888 12.53640579 57240
OSCAR 11 (UoSAT 2)
1 14781U 84021B   19303.55615349  .00000087  00000-0  16810-4 0  9995
2 14781  97.6035 321.8886 0007231 234.1022 125.9522 14.83116117918609
OSCAR 19 (LUSAT)
1 20442U 90005G   19302.89889151 -.00000002 +00000-0 +15627-4 0  9998
2 20442 098.6614 244.7454 0012747 114.4412 245.8103 14.32936165555396
EYESAT A
1 22825U 93061C   19303.06588328 -.00000015  00000-0  12264-4 0  9990
2 22825  98.9143 294.8162 0007994 337.5668  22.5163 14.30069710361015
ITAMSAT
1 22826U 93061D   19303.87585353 -.00000013  00000-0  12918-4 0  9999
2 22826  98.9084 295.6201 0008302 322.6148  37.4455 14.30403994361335
RADIO ROSTO
1 23439U 94085A   19302.90648977 -.00000052 +00000-0 -28595-3 0  9993
2 23439 064.8155 260.6953 0145277 087.1929 274.5612 11.27568480022918
JAS 2
1 24278U 96046B   19303.83191573 -.00000031  00000-0  71170-5 0  9997
2 24278  98.5583  79.1728 0349402 252.2181 104.0551 13.53094324145943
TECHSAT 1B
1 25397U 98043D   19303.85579059 -.00000004  00000-0  17610-4 0  9998
2 25397  98.7005 242.4357 0001856  44.0020 316.1306 14.23673210106965
ISS (ZARYA)
1 25544U 98067A   19303.79239980  .00001149  00000-0  27927-4 0  9999
2 25544  51.6465  48.8893 0006099 207.5072 289.2725 15.50231908196292
PCSAT
1 26931U 01043C   19302.61695267 -.00000022  00000-0  23268-4 0  9996
2 26931  67.0532  20.6658 0007487 267.0099  93.0146 14.30556665943989
SAUDISAT 1C
1 27607U 02058C   19303.12955751  .00000039  00000-0  26324-4 0  9991
2 27607  64.5564   1.6241 0073927 230.5154 128.9395 14.75583950906724
CUTE-1
1 27844U 03031E   19302.90305430 +.00000049 +00000-0 +41703-4 0  9993
2 27844 098.6851 309.1302 0010037 011.9938 348.1476 14.22202098847185
CUBESAT XI 4
1 27848U 03031J   19303.49621252  .00000029  00000-0  32952-4 0  9999
2 27848  98.6923 310.2412 0010097  21.9870 338.1739 14.21794271847152
MOZHAYETS 4
1 27939U 03042A   19303.75258876  .00000087  00000-0  24266-4 0  9992
2 27939  98.0601  77.1077 0013069   9.3900 350.7554 14.66812836860193
CUBESAT XI 5
1 28895U 05043F   19303.83900416  .00000146  00000-0  36925-4 0  9991
2 28895  97.9789  82.1281 0015509 289.5925  70.3603 14.63704946747107
CUTE-1.7+APD II
1 32785U 08021C   19303.47474587  .00000222  00000-0  29588-4 0  9990
2 32785  97.5572 296.9313 0013149 172.7992 187.3417 14.88364871623585
DELFI C3
1 32789U 08021G   19303.20649887  .00001821  00000-0  12475-3 0  9994
2 32789  97.4500 348.7550 0012809  35.3676 324.8399 15.07213554627071
SEEDS
1 32791U 08021J   19302.99881776  .00000324  00000-0  38125-4 0  9995
2 32791  97.5320 302.5666 0014089 148.2700 211.9370 14.90897409623973
YUBELEINY
1 32953U 08025A   19303.65019457  .00000020  00000-0  75656-4 0  9995
2 32953  82.5030  61.4442 0019447 194.7657 165.2851 12.43092075518956
PRISM (HITOMI)
1 33493U 09002B   19303.83890200  .00000260  00000-0  28231-4 0  9997
2 33493  98.1244 229.8895 0016417  97.0821 263.2267 14.96785087585215
KKS-1 (KISEKI)
1 33499U 09002H   19303.54405775  .00000096  00000-0  22086-4 0  9999
2 33499  98.3389 146.4655 0009959 134.8973 225.3045 14.75473993578966
SWISSCUBE
1 35932U 09051B   19303.43855938  .00000136  00000-0  41813-4 0  9999
2 35932  98.5994 113.4361 0008618 112.7213 247.4896 14.56323398536241
BEESAT
1 35933U 09051C   19303.43355166  .00000118  00000-0  37680-4 0  9995
2 35933  98.6010 115.2437 0006733 123.2215 236.9629 14.56407703536353
ITUPSAT 1
1 35935U 09051E   19303.77478558  .00000093  00000-0  32648-4 0  9996
2 35935  98.6120 115.8226 0009077 121.6945 238.5137 14.55562469536144
XIWANG-1 (HOPE-1)
1 36122U 09072B   19303.42788820 -.00000033  00000-0  23005-4 0  9998
2 36122 100.0797 299.5508 0008004  42.2261 317.9477 13.16351747474479
TISAT 1
1 36799U 10035E   19303.41996963  .00000257  00000-0  31990-4 0  9996
2 36799  98.1724 100.1583 0012445  13.7512 346.4042 14.91189007504697
JUGNU
1 37839U 11058B   19303.25286236  .00000324  00000-0  31085-4 0  9995
2 37839  19.9607 244.8421 0018822   0.1427 146.3477 14.12662903416168
SRMSAT
1 37841U 11058D   19303.12230338  .00000311  00000-0  25589-4 0  9994
2 37841  19.9726 305.1703 0011659 221.6948 194.1590 14.10641874415557
M-CUBED/EXP-1 PRIME
1 37855U 11061F   19303.11301075  .00002460  00000-0  12925-3 0  9995
2 37855 101.7193 267.2237 0172903  41.1950 320.2164 15.05702685436856
HORYU 2
1 38340U 12025D   19303.08012654  .00000213  00000-0  39045-4 0  9991
2 38340  98.3150 345.5773 0012564  62.8877 297.3611 14.75766427400839
STRAND 1
1 39090U 13009E   19303.79167987  .00000046  00000-0  31334-4 0  9992
2 39090  98.4744 147.4243 0008079 248.6338 111.3986 14.35102849349622
SOMP
1 39134U 13015E   19303.48965476  .00001837  00000-0  91780-4 0  9993
2 39134  64.8635 306.8737 0037204 282.2178  77.4783 15.20444282360933
BEESAT 3
1 39135U 13015F   19302.53076606  .00001244  00000-0  70341-4 0  9999
2 39135  64.8677 330.1689 0038310 288.0135  71.6818 15.17686686360401
BEESAT 2
1 39136U 13015G   19303.47541820  .00001113  00000-0  65383-4 0  9994
2 39136  64.8687 331.3320 0029628 292.6908  67.1086 15.17104749360467
CUBEBUG 1
1 39153U 13018D   19303.77801562  .00000251  00000-0  39510-4 0  9996
2 39153  97.9816  41.1725 0018160 122.0196 238.2784 14.80615642351651
ZACUBE
1 39417U 13066B   19303.53559772  .00000253  00000-0  38227-4 0  9995
2 39417  97.5623 309.5144 0057871 316.2407  43.4227 14.81169483320850
TRITON 1
1 39427U 13066M   19302.92728554  .00000216  00000-0  41967-4 0  9998
2 39427  97.6936 272.1905 0115173  98.7808 262.6461 14.67896614317887
GOMX 1
1 39430U 13066Q   19303.74231940  .00000150  00000-0  36223-4 0  9997
2 39430  97.7616 251.5677 0150598 191.1733 168.6110 14.59301397316154
HUMSAT D
1 39433U 13066T   19303.12091570  .00000509  00000-0  54765-4 0  9994
2 39433  97.5388 345.0729 0029983 212.9223 147.0130 14.92284356322979
CUBEBUG 2
1 39440U 13066AA  19303.51608289  .00000281  00000-0  45905-4 0  9999
2 39440  97.6112 294.1110 0080535  11.3000 348.9995 14.75906896319715
FUNCUBE 1
1 39444U 13066AE  19303.52935954  .00000313  00000-0  44905-4 0  9991
2 39444  97.5592 311.5784 0056857 309.4323  50.1866 14.81999595319758
UWE-3
1 39446U 13066AG  19303.49398372  .00000252  00000-0  40039-4 0  9992
2 39446  97.5861 301.2390 0069615 344.6476  15.2623 14.78441912319039
SPROUT
1 39770U 14029E   19303.77322144  .00000694  00000-0  82690-4 0  9996
2 39770  97.8893  46.2441 0009252  12.6740 347.4701 14.87478767294764
UNISAT 6
1 40012U 14033C   19303.13557372  .00000203  00000-0  37539-4 0  9993
2 40012  97.7371 163.8669 0059098  28.4503 331.9911 14.74024633288341
DUCHIFAT 1
1 40021U 14033M   19302.85492333  .00000472  00000-0  53896-4 0  9998
2 40021  97.9266 227.8984 0012452 337.5813  22.4859 14.90719362291387
QB50P1
1 40025U 14033R   19303.36442955  .00000314  00000-0  39328-4 0  9993
2 40025  97.9052 222.8195 0012123 346.5886  13.5006 14.89008784291212
CHUBUSAT 1
1 40300U 14070C   19303.77840003  .00000940  00000-0  43726-4 0  9993
2 40300  97.3164  14.4962 0019171 307.7925 200.4646 15.22227160276417
NUDT-PHONESAT
1 40900U 15049B   19303.81614672  .00003063  00000-0  13214-3 0  9999
2 40900  97.4370 311.8645 0014438  75.1734  51.7899 15.23208952228075
ZDPS 2A
1 40901U 15049C   19303.70557698  .00001024  00000-0  53722-4 0  9996
2 40901  97.4621 307.6184 0014999  95.7441 353.2183 15.17900058227569
ZDPS 2B
1 40902U 15049D   19303.74425997  .00001696  00000-0  87081-4 0  9997
2 40902  97.4573 305.0449 0015120  93.3566 352.1265 15.17778083227549
XW-2A
1 40903U 15049E   19303.78113037  .00002752  00000-0  65846-4 0  9990
2 40903  97.3223 347.2180 0014148  26.5413  65.1207 15.42257457230916
KAITUO 1A
1 40904U 15049F   19303.78155297  .00000571  00000-0  33593-4 0  9996
2 40904  97.4713 303.5323 0016126 101.4784  23.7689 15.15478976227302
OBJECT G
1 40905U 15049G   19303.75224372  .00000355  00000-0  22857-4 0  9996
2 40905  97.4763 300.9172 0017253  97.8881 347.9864 15.14374797227164
XW-2C
1 40906U 15049H   19303.74742344  .00000880  00000-0  49438-4 0  9997
2 40906  97.4717 303.6455 0016427  93.7661 352.8453 15.15802202227304
XW-2D
1 40907U 15049J   19303.83953272  .00000799  00000-0  44938-4 0  9991
2 40907  97.4696 303.4184 0015762  91.0519 352.6630 15.16000937227336
LILACSAT 2
1 40908U 15049K   19303.77459370  .00000266  00000-0  18266-4 0  9999
2 40908  97.4836 302.0259 0017544  98.5331 347.7043 15.13877363227093
XW-2F
1 40910U 15049M   19303.73887313  .00001587  00000-0  82313-4 0  9991
2 40910  97.4655 305.5256 0016417  83.8942   1.8371 15.17501488227349
XW-2B
1 40911U 15049N   19303.74701168  .00001006  00000-0  55816-4 0  9990
2 40911  97.4718 303.9986 0015760  91.9591 354.9344 15.15930520227211
KAITUO 1B
1 40912U 15049P   19303.76294111  .00001628  00000-0  78933-4 0  9993
2 40912  97.4504 309.4020 0016376  67.1791  19.3985 15.19838252227672
TIANWANG 1C (TW-1C)
1 40926U 15051B   19303.85288531  .00018659  00000-0  24572-3 0  9991
2 40926  97.1195 349.9569 0006047 220.3935 226.1188 15.58469892231035
TIANWANG 1B (TW-1B)
1 40927U 15051C   19303.82580595  .00017477  00000-0  24598-3 0  9999
2 40927  97.1232 349.0233 0005847 237.8627 210.6689 15.56697701230869
